Location: Islay
(41.3172°N, 105.1346°W)
Time: 00:17:28
(UTC+00:00)

ISS - Visible Passes

Search period start: 17 April 2026 00:00
Search period end: 27 April 2026 00:00
Orbit: 416 x 425 km, 51.6° (Epoch: 16 April)

Date Brightness Start Highest point End Pass type
(mag) Time Alt. Az. Time Alt. Az. Time Alt. Az.
18 Apr -2.6 11:09:40 14° SSW 11:12:10 36° SE 11:15:19 10° ENE visible
19 Apr -1.9 10:24:25 21° SSE 10:25:02 22° SE 10:27:42 10° E visible
20 Apr -0.8 09:39:05 11° ESE 09:39:05 11° ESE 09:39:34 10° E visible
20 Apr -3.7 11:12:04 19° WSW 11:14:20 74° NW 11:17:44 10° NE visible
21 Apr -3.7 10:26:39 57° S 10:27:05 66° SE 10:30:26 10° ENE visible
22 Apr -1.8 09:41:10 26° E 09:41:10 26° E 09:43:01 10° ENE visible
22 Apr -2.4 11:14:08 13° W 11:16:43 31° NNW 11:19:48 10° NE visible
23 Apr -3.1 10:28:35 37° WNW 10:29:20 45° NNW 10:32:36 10° NE visible
24 Apr -2.5 09:42:59 42° NE 09:42:59 42° NE 09:45:21 10° NE visible
24 Apr -1.5 11:16:46 10° WNW 11:19:16 19° NNW 11:21:46 10° NNE visible
25 Apr -0.8 08:57:20 15° ENE 08:57:20 15° ENE 08:58:02 10° ENE visible
25 Apr -1.9 10:30:17 18° WNW 10:31:45 23° NNW 10:34:32 10° NE visible
26 Apr -2.2 09:44:35 30° NNW 09:44:35 30° NNW 09:47:21 10° NE visible
26 Apr -1.1 11:19:54 10° NW 11:21:54 15° N 11:23:55 10° NNE visible
